Weather History for Kalispell, MT

Change the Weather History Date:

Thursday, May 15, 2014

  Actual Average Record
Temperature  
Mean Temperature 60 °F 52 °F  
Max Temperature 78 °F 65 °F 85 °F (2006)
Min Temperature 41 °F 38 °F 25 °F (2013)
Degree Days  
Heating Degree Days 5 13  
Month to date heating degree days 248 232  
Since 1 July heating degree days 7798 7643  
Cooling Degree Days 0 0  
Month to date cooling degree days 0 0  
Year to date cooling degree days 0 0  
Growing Degree Days 9 (Base 50)    
Moisture  
Dew Point 40 °F    
Average Humidity 56    
Maximum Humidity 89    
Minimum Humidity 23    
Precipitation  
Precipitation 0.00 in 0.06 in 0.95 in (1981)
Month to date precipitation 0.72 0.78  
Year to date precipitation 6.77 5.41  
Snow  
Snow 0.00 in - - ()
Month to date snowfall T  
Year to date snowfall 38.2  
Since 1 July snowfall 71.7  
Snow Depth 0.00 in    
Sea Level Pressure  
Sea Level Pressure 30.10 in    
Wind  
Wind Speed 7 mph (North)    
Max Wind Speed 26 mph    
Max Gust Speed 33 mph    
Visibility 10 miles    
Events      
T = Trace of Precipitation, MM = Missing Value Source: NWS Daily Summary

Daily Weather History Graph

Daily Weather History Graph

Search for Another Location

Airport:

Trip Planner

Search our weather history database for the weather conditions in past years. The results will help you decide how hot, cold, wet, or windy it might be!

Date:

Astronomy

May. 15, 2014 Rise Set
Actual Time 5:57 AM MDT 9:10 PM MDT
Civil Twilight 5:19 AM MDT 9:48 PM MDT
Nautical Twilight 4:30 AM MDT 10:37 PM MDT
Astronomical Twilight 3:29 AM MDT 11:39 PM MDT
Moon 10:22 PM MDT (5/15) 6:48 AM MDT (5/15)
Length of Visible Light 16h 28m
Length of Day
15h 13m
Full, 99% of the Moon is Illuminated
May 15
Full
May 21
Last Quarter
May 28
New
Jun 5
First Quarter
Jun 12
Full

Hourly Weather History & Observations

Time (MDT) Temp. Windchill Dew Point Humidity Pressure Visibility Wind Dir Wind Speed Gust Speed Precip Events Conditions
12:55 AM 44.1 °F - 39.9 °F 85% 30.20 in 10.0 mi Calm Calm - N/A   Clear
1:55 AM 43.0 °F 41.3 °F 39.9 °F 89% 30.19 in 10.0 mi WNW 3.5 mph - N/A   Clear
2:55 AM 44.1 °F - 39.9 °F 85% 30.19 in 10.0 mi Calm Calm - N/A   Partly Cloudy
3:55 AM 44.1 °F 42.5 °F 41.0 °F 89% 30.19 in 10.0 mi ENE 3.5 mph - N/A   Clear
4:55 AM 43.0 °F 41.3 °F 39.9 °F 89% 30.17 in 10.0 mi North 3.5 mph - N/A   Clear
5:55 AM 43.0 °F 41.3 °F 39.9 °F 89% 30.18 in 10.0 mi Variable 3.5 mph - N/A   Clear
6:55 AM 46.9 °F - 39.9 °F 77% 30.18 in 10.0 mi Calm Calm - N/A   Clear
7:55 AM 48.9 °F - 42.1 °F 77% 30.18 in 10.0 mi North 4.6 mph - N/A   Clear
8:55 AM 53.1 °F - 43.0 °F 69% 30.17 in 10.0 mi NNE 4.6 mph - N/A   Clear
9:55 AM 57.0 °F - 43.0 °F 59% 30.17 in 10.0 mi Calm Calm - N/A   Clear
10:55 AM 57.9 °F - 43.0 °F 58% 30.16 in 10.0 mi Variable 3.5 mph - N/A   Clear
11:55 AM 64.0 °F - 45.0 °F 50% 30.13 in 10.0 mi Calm Calm - N/A   Clear
1:55 PM 72.0 °F - 43.0 °F 35% 30.07 in 10.0 mi SE 6.9 mph - N/A   Clear
2:55 PM 73.0 °F - 43.0 °F 34% 30.04 in 10.0 mi SE 6.9 mph - N/A   Clear
3:55 PM 75.0 °F - 43.0 °F 32% 30.02 in 10.0 mi SSE 8.1 mph - N/A   Clear
4:55 PM 75.9 °F - 39.0 °F 26% 30.00 in 10.0 mi Calm Calm - N/A   Clear
5:55 PM 75.9 °F - 35.1 °F 23% 29.99 in 10.0 mi West 15.0 mph 18.4 mph N/A   Clear
6:55 PM 73.0 °F - 35.1 °F 25% 29.99 in 10.0 mi West 12.7 mph - N/A   Clear
7:55 PM 70.0 °F - 35.1 °F 28% 29.99 in 10.0 mi West 8.1 mph - N/A   Clear
8:55 PM 68.0 °F - 35.1 °F 30% 30.00 in 10.0 mi Calm Calm - N/A   Scattered Clouds
9:55 PM 63.0 °F - 41.0 °F 45% 30.02 in 10.0 mi NNE 11.5 mph - N/A   Clear
10:55 PM 61.0 °F - 41.0 °F 48% 30.04 in 10.0 mi NNE 20.7 mph 29.9 mph N/A   Clear
11:55 PM 59.0 °F - 41.0 °F 51% 30.04 in 10.0 mi NNE 19.6 mph 28.8 mph N/A   Clear